Regional Weather Roundup
Issued by NWS

Home | Current Version | Previous Version | Text Only | Print | Product List | Glossary On
Versions: 1 2 3 4 5 6 7 8 9 10 11 12 13 14 15 16 17 18 19 20 21 22 23 24 25 26 27 28 29 30 31 32 33 34 35 36 37 38 39 40 41 42 43 44 45 46 47 48 49 50
000
ASUS43 KTOP 011008
RWRKS

WEATHER ROUNDUP FOR KANSAS
NATIONAL WEATHER SERVICE GOODLAND KS
500 AM CDT TUE SEP 01 2015

NOTE:  "FAIR" INDICATES FEW OR NO CLOUDS BELOW 12,000 FEET WITH NO
SIGNIFICANT WEATHER AND/OR OBSTRUCTIONS TO VISIBILITY.

KSZ001>006-013>018-027>032-041>047-011100-
NORTHWEST KANSAS

CITY           SKY/WX    TMP DP  RH WIND       PRES   REMARKS
GOODLAND       PTCLDY    63  60  90 SW7       30.01R
HAYS           MOCLDY    73  57  56 S13       29.95F
HILL CITY      CLOUDY    71  55  56 S6        29.95F
RUSSELL        CLEAR     74  61  63 S16       29.95R
$$

KSZ061>065-074>080-084>089-011100-
SOUTHWEST KANSAS

CITY           SKY/WX    TMP DP  RH WIND       PRES   REMARKS
DODGE CITY     CLEAR     69  58  67 SE15      29.98S
ELKHART          N/A     68  56  65 N1          N/A
GARDEN CITY    PTCLDY    65  57  75 S9        29.95S
GREAT BEND     PTCLDY    73  59  60 S17       29.97S
LIBERAL        PTCLDY    66  52  59 S8        29.99S
PRATT          CLEAR     70  59  68 MISG      30.01F
$$

KSZ066>073-081>083-090>101-011100-
SOUTHEAST KANSAS

CITY           SKY/WX    TMP DP  RH WIND       PRES   REMARKS
CHANUTE        CLEAR     70  67  90 S6        30.02R
COFFEYVILLE    CLEAR     69  67  93 S5        30.02R
HUTCHINSON     CLEAR     69  61  75 SE6       29.99S
MEDICINE LODGE   N/A     71  62  73 SE3       30.00R
NEWTON         CLEAR     72  59  64 S13       30.02F
PARSONS        CLEAR     71  68  90 S3        30.03R
WICHITA INTL   PTCLDY    69  63  81 S8        30.00S
WICHITA JABRA  CLEAR     72  64  76 S10       30.00S
WICHITA MCCONL CLEAR     71  62  75 S10       30.01R
WINFIELD       CLEAR     71  64  78 S6        30.02R
$$

KSZ007>012-019>026-033>040-048>060-102>105-011100-
NORTHEAST KANSAS

CITY           SKY/WX    TMP DP  RH WIND       PRES   REMARKS
CONCORDIA      CLEAR     72  62  71 S14       29.94S
EMPORIA        CLEAR     70  66  87 S12       30.00R
LAWRENCE       CLEAR     71  68  90 SE6       30.00R
MANHATTAN      CLEAR     70  66  87 CALM      29.97R
MARYSVILLE     CLEAR    N/A N/A N/A S6        29.96R
OLATHE IND     CLEAR     71  69  93 S9        30.02R
OLATHE EXE     CLEAR     71  68  90 S6        30.01S
SALINA         CLEAR     74  61  63 S9        29.95S
TOPEKA BILLARD CLEAR     75  69  81 S5        29.98S
TOPEKA FORBES  CLEAR     74  69  85 S9        29.99R
$$


USA.gov is the U.S. government's official web portal to all federal, state and local government web resources and services.